When you browse on this site, cookies collect data to enhance your experience and personalize the content and advertising you see.
Visit our Privacy Policy to learn more. By continuing to use the site, you agree to this use of cookies and data.
  • In Spain
  • List of Countries
  • For 7 days
  • Water Temperature
  • Weather Map
  • Weather Widgets
  • user-avatar
    Login

    Hourly Weather Welwyn Garden City

    Today, 11 November, Monday

    Time Temperature Precipitation Wind Pressure Humidity
    00:00 +5°C° 0 mm 3 mps 748 mmHg 86%
    01:00 +5°C° 0.4 mm 3 mps 747 mmHg 88%
    02:00 +5°C° 0.4 mm 4 mps 746 mmHg 91%
    03:00 +5°C° 0.4 mm 4 mps 744 mmHg 93%
    04:00 +6°C° 1.9 mm 4 mps 743 mmHg 93%
    05:00 +6°C° 1.9 mm 5 mps 743 mmHg 93%
    06:00 +5°C° 0 mm 6 mps 742 mmHg 93%
    07:00 +5°C° 0.3 mm 6 mps 742 mmHg 89%
    08:00 +4°C° 0.3 mm 7 mps 741 mmHg 86%
    09:00 +4°C° 0.3 mm 8 mps 741 mmHg 83%
    10:00 +5°C° 0.1 mm 8 mps 742 mmHg 80%
    11:00 +5°C° 0.1 mm 8 mps 742 mmHg 77%
    12:00 +7°C° 0 mm 6 mps 742 mmHg 74%
    13:00 +7°C° 0.1 mm 6 mps 742 mmHg 74%
    14:00 +5°C° 0.1 mm 6 mps 742 mmHg 73%
    15:00 +5°C° 0.1 mm 7 mps 742 mmHg 73%
    16:00 +5°C° 0 mm 6 mps 742 mmHg 75%
    17:00 +4°C° 0 mm 6 mps 742 mmHg 78%
    18:00 +4°C° 0 mm 6 mps 743 mmHg 80%
    19:00 +3°C° 0 mm 6 mps 743 mmHg 81%
    20:00 +3°C° 0 mm 6 mps 743 mmHg 81%
    21:00 +2°C° 0 mm 5 mps 743 mmHg 82%
    22:00 +2°C° 0 mm 5 mps 743 mmHg 82%
    23:00 +2°C° 0 mm 5 mps 742 mmHg 82%

    Tomorrow, 12 November, Tuesday

    Time Temperature Precipitation Wind Pressure Humidity
    00:00 +2°C° 0 mm 5 mps 742 mmHg 81%
    01:00 +2°C° 0 mm 5 mps 742 mmHg 81%
    02:00 +2°C° 0 mm 5 mps 742 mmHg 81%
    03:00 +2°C° 0 mm 5 mps 742 mmHg 81%
    04:00 +2°C° 0 mm 6 mps 742 mmHg 81%
    05:00 +1°C° 0 mm 6 mps 742 mmHg 81%
    06:00 +1°C° 0 mm 6 mps 742 mmHg 81%
    07:00 +2°C° 0 mm 6 mps 741 mmHg 79%
    08:00 +2°C° 0 mm 6 mps 741 mmHg 78%
    09:00 +2°C° 0 mm 7 mps 741 mmHg 76%
    10:00 +2°C° 0.1 mm 7 mps 740 mmHg 76%
    11:00 +2°C° 0.1 mm 8 mps 740 mmHg 76%
    12:00 +2°C° 0.1 mm 9 mps 740 mmHg 76%
    13:00 +2°C° 0.4 mm 8 mps 740 mmHg 80%
    14:00 +4°C° 0.4 mm 7 mps 740 mmHg 84%
    15:00 +4°C° 0.4 mm 6 mps 739 mmHg 88%
    16:00 +4°C° 0.1 mm 6 mps 740 mmHg 88%
    17:00 +5°C° 0.1 mm 5 mps 740 mmHg 88%
    18:00 +5°C° 0.1 mm 4 mps 740 mmHg 87%
    19:00 +4°C° 0 mm 4 mps 741 mmHg 89%
    20:00 +4°C° 0 mm 4 mps 741 mmHg 90%
    21:00 +4°C° 0 mm 4 mps 742 mmHg 91%
    22:00 +3°C° 0 mm 4 mps 742 mmHg 91%
    23:00 +3°C° 0 mm 3 mps 742 mmHg 91%

    Day after tomorrow, 13 November, Wednesday

    Time Temperature Precipitation Wind Pressure Humidity
    00:00 +3°C° 0 mm 3 mps 742 mmHg 91%
    01:00 +2°C° 0 mm 3 mps 742 mmHg 92%
    02:00 +2°C° 0 mm 3 mps 742 mmHg 93%
    03:00 +2°C° 0 mm 3 mps 742 mmHg 93%
    04:00 +2°C° 0 mm 3 mps 743 mmHg 93%
    05:00 +2°C° 0 mm 3 mps 743 mmHg 93%
    06:00 +1°C° 0 mm 3 mps 743 mmHg 92%
    07:00 +2°C° 0 mm 3 mps 743 mmHg 90%
    08:00 +2°C° 0 mm 3 mps 743 mmHg 88%
    09:00 +3°C° 0 mm 3 mps 743 mmHg 86%
    10:00 +4°C° 0 mm 3 mps 742 mmHg 83%
    11:00 +5°C° 0 mm 3 mps 742 mmHg 79%
    12:00 +7°C° 0 mm 3 mps 742 mmHg 76%
    13:00 +5°C° 0 mm 3 mps 741 mmHg 77%
    14:00 +5°C° 0 mm 3 mps 740 mmHg 77%
    15:00 +5°C° 0 mm 3 mps 740 mmHg 77%
    16:00 +5°C° 0 mm 3 mps 739 mmHg 80%
    17:00 +4°C° 0 mm 3 mps 738 mmHg 82%
    18:00 +4°C° 0 mm 3 mps 737 mmHg 84%
    19:00 +4°C° 0 mm 3 mps 737 mmHg 84%
    20:00 +4°C° 0 mm 4 mps 736 mmHg 85%
    21:00 +4°C° 0 mm 4 mps 736 mmHg 85%
    22:00 +4°C° 0.4 mm 4 mps 736 mmHg 86%
    23:00 +3°C° 0.4 mm 5 mps 735 mmHg 88%

    14 November, Thursday

    Time Temperature Precipitation Wind Pressure Humidity
    00:00 +5°C° 0.4 mm 5 mps 735 mmHg 90%
    01:00 +4°C° 0.5 mm 4 mps 735 mmHg 90%
    02:00 +4°C° 0.5 mm 3 mps 735 mmHg 91%
    03:00 +5°C° 0.5 mm 2 mps 734 mmHg 91%
    04:00 +4°C° 0.7 mm 2 mps 735 mmHg 92%
    05:00 +4°C° 0.7 mm 2 mps 735 mmHg 92%
    06:00 +5°C° 0.7 mm 1 mps 735 mmHg 92%
    07:00 +4°C° 0.4 mm 2 mps 736 mmHg 91%
    08:00 +4°C° 0.4 mm 2 mps 736 mmHg 90%
    09:00 +4°C° 0.4 mm 2 mps 737 mmHg 89%
    10:00 +4°C° 0.1 mm 3 mps 738 mmHg 85%
    11:00 +4°C° 0.1 mm 3 mps 738 mmHg 82%
    12:00 +5°C° 0.1 mm 4 mps 739 mmHg 79%
    13:00 +5°C° 0.1 mm 3 mps 739 mmHg 79%
    14:00 +5°C° 0.1 mm 3 mps 740 mmHg 79%
    15:00 +5°C° 0.1 mm 3 mps 740 mmHg 79%
    16:00 +4°C° 0 mm 3 mps 741 mmHg 83%
    17:00 +4°C° 0 mm 2 mps 742 mmHg 86%
    18:00 +4°C° 0 mm 2 mps 742 mmHg 90%
    19:00 +3°C° 0 mm 2 mps 743 mmHg 90%
    20:00 +3°C° 0 mm 2 mps 744 mmHg 91%
    21:00 +3°C° 0 mm 2 mps 744 mmHg 91%
    22:00 +3°C° 0 mm 2 mps 745 mmHg 90%
    23:00 +2°C° 0 mm 3 mps 745 mmHg 90%

    15 November, Friday

    Time Temperature Precipitation Wind Pressure Humidity
    00:00 +2°C° 0 mm 3 mps 746 mmHg 89%
    01:00 +2°C° 0 mm 3 mps 746 mmHg 88%
    02:00 +3°C° 0 mm 4 mps 746 mmHg 86%
    03:00 +3°C° 0 mm 4 mps 746 mmHg 85%
    04:00 +3°C° 0 mm 4 mps 746 mmHg 86%
    05:00 +2°C° 0 mm 5 mps 746 mmHg 87%
    06:00 +3°C° 0 mm 5 mps 746 mmHg 88%
    07:00 +3°C° 0 mm 5 mps 746 mmHg 86%
    08:00 +4°C° 0 mm 6 mps 747 mmHg 85%
    09:00 +4°C° 0 mm 6 mps 747 mmHg 83%
    10:00 +4°C° 0.1 mm 6 mps 747 mmHg 81%
    11:00 +5°C° 0.1 mm 7 mps 746 mmHg 79%
    12:00 +5°C° 0.1 mm 7 mps 746 mmHg 77%
    13:00 +5°C° 0.6 mm 8 mps 746 mmHg 79%
    14:00 +5°C° 0.6 mm 8 mps 746 mmHg 82%
    15:00 +5°C° 0.6 mm 8 mps 745 mmHg 85%
    16:00 +5°C° 2.4 mm 8 mps 745 mmHg 87%
    17:00 +5°C° 2.4 mm 8 mps 745 mmHg 90%
    18:00 +5°C° 2.4 mm 7 mps 745 mmHg 92%
    19:00 +5°C° 0.7 mm 6 mps 746 mmHg 93%
    20:00 +5°C° 0.7 mm 5 mps 746 mmHg 93%
    21:00 +5°C° 0.7 mm 4 mps 746 mmHg 93%
    22:00 +5°C° 0.3 mm 4 mps 746 mmHg 93%
    23:00 +5°C° 0.3 mm 3 mps 746 mmHg 93%

    16 November, Saturday

    Time Temperature Precipitation Wind Pressure Humidity
    00:00 +5°C° 0.3 mm 3 mps 746 mmHg 93%
    01:00 +5°C° 0.1 mm 3 mps 746 mmHg 93%
    02:00 +5°C° 0.1 mm 3 mps 746 mmHg 92%
    03:00 +5°C° 0.1 mm 3 mps 745 mmHg 91%
    04:00 +5°C° 0.1 mm 3 mps 746 mmHg 90%
    05:00 +4°C° 0.1 mm 3 mps 746 mmHg 88%
    06:00 +4°C° 0.1 mm 3 mps 746 mmHg 87%
    07:00 +4°C° 0.1 mm 3 mps 746 mmHg 86%
    08:00 +5°C° 0.1 mm 3 mps 746 mmHg 86%
    09:00 +5°C° 0.1 mm 4 mps 747 mmHg 85%
    10:00 +5°C° 0 mm 4 mps 747 mmHg 84%
    11:00 +6°C° 0 mm 4 mps 747 mmHg 84%
    12:00 +6°C° 0 mm 5 mps 747 mmHg 83%
    13:00 +6°C° 0 mm 4 mps 747 mmHg 83%
    14:00 +6°C° 0 mm 4 mps 747 mmHg 83%
    15:00 +6°C° 0 mm 4 mps 747 mmHg 83%
    16:00 +6°C° 0 mm 4 mps 747 mmHg 84%
    17:00 +5°C° 0 mm 4 mps 747 mmHg 86%
    18:00 +5°C° 0 mm 4 mps 747 mmHg 87%
    19:00 +5°C° 0 mm 4 mps 748 mmHg 87%
    20:00 +5°C° 0 mm 4 mps 748 mmHg 87%
    21:00 +4°C° 0 mm 4 mps 749 mmHg 87%
    22:00 +4°C° 0 mm 4 mps 749 mmHg 87%
    23:00 +4°C° 0 mm 3 mps 749 mmHg 86%
    Show more